"Time","Temp","Dewpoint","Humidity","Pressure","Direction","Speed","Gust","Precip","PrecipRate"
"00:04:56","71.4","66.7","85","30.13","42","0","0","0.00","0.00"
"00:09:59","71.5","66.8","85","30.13","42","0","0","0.00","0.00"
"00:14:59","71.5","66.8","85","30.13","42","0","0","0.00","0.00"
"00:19:57","71.2","66.6","85.3","30.13","42","0","0","0.00","0.00"
"00:24:58","71","66.6","86","30.13","42","0","0","0.00","0.00"
"00:29:56","70.8","66.5","86.2","30.13","42","0","0","0.00","0.00"
"00:34:58","70.7","66.5","86.7","30.13","42","0","0","0.00","0.00"
"00:39:57","70.7","66.6","87","30.13","42","0","0","0.00","0.00"
"00:44:59","70.7","66.6","87","30.13","42","0","0","0.00","0.00"
"00:49:57","70.6","66.5","87","30.13","42","0.1","1.2","0.00","0.00"
"00:54:59","70.6","66.5","87","30.13","42","0","1.2","0.00","0.00"
"00:59:57","70.5","66.4","87.1","30.13","42","0.1","1.2","0.00","0.00"
"01:04:58","70.3","66.7","88.2","30.13","42","0.2","1.2","0.00","0.00"
"01:09:56","70.2","66.8","89","30.13","42","0.1","1.2","0.00","0.00"
"01:14:59","70.1","66.8","89.3","30.13","42","0","0","0.00","0.00"
"01:19:57","70","66.8","89.7","30.13","42","0","0","0.00","0.00"
"01:24:58","69.9","66.8","90","30.13","42","0","0","0.00","0.00"
"01:29:56","69.9","66.8","90","30.13","42","0","0","0.00","0.00"
"01:34:58","69.7","66.6","90","30.12","42","0","0","0.00","0.00"
"01:39:56","69.6","66.7","90.6","30.12","43","0.2","2.3","0.00","0.00"
"01:44:58","69.6","67","91.4","30.12","43","0.2","1.2","0.00","0.00"
"01:49:56","69.6","67.1","91.7","30.12","43","0","1.2","0.00","0.00"
"01:54:58","69.6","67","91.3","30.12","43","0","0","0.00","0.00"
"01:59:56","69.6","67","91.5","30.12","43","0","0","0.00","0.00"
"02:04:57","69.6","67.2","92","30.12","43","0","0","0.00","0.00"
"02:09:59","69.6","67.2","92","30.12","43","0.1","1.2","0.00","0.00"
"02:14:58","69.7","67.3","92","30.12","43","0","0","0.00","0.00"
"02:19:56","69.6","67.1","91.5","30.11","43","0","0","0.00","0.00"
"02:24:58","69.6","67.2","92","30.11","43","0","0","0.00","0.00"
"02:29:56","69.6","67.2","92","30.11","43","0","1.2","0.00","0.00"
"02:34:58","69.7","67.2","91.9","30.11","43","0","1.2","0.00","0.00"
"02:39:57","69.6","67.2","91.8","30.11","43","0.3","2.3","0.00","0.00"
"02:44:59","69.9","67.6","92.6","30.11","47","0.8","2.3","0.00","0.00"
"02:49:57","70","67.6","92","30.10","67","0.9","3","0.00","0.00"
"02:54:59","70.3","68","92.5","30.10","106","1.3","4","0.00","0.00"
"02:59:56","70.7","68.3","92","30.10","163","2.6","6","0.00","0.00"
"03:04:58","71.1","68.4","91.2","30.10","181","1.5","5.8","0.00","0.00"
"03:09:56","71.3","68.5","91","30.10","182","0.6","3.5","0.00","0.00"
"03:14:59","71.4","68.4","90.6","30.10","182","0.5","3.5","0.00","0.00"
"03:19:58","71.4","68.3","90","30.10","182","0.5","3.5","0.00","0.00"
"03:24:56","71.3","68.2","90","30.10","182","1.1","3.5","0.00","0.00"
"03:29:57","71.3","68.4","90.8","30.10","131","1.7","4","0.00","0.00"
"03:34:59","71.2","68.1","90","30.10","138","0.7","3.5","0.00","0.00"
"03:39:59","71","68.1","90.5","30.10","160","1.8","4","0.00","0.00"
"03:44:56","71","68.2","91","30.10","165","1.3","3.5","0.00","0.00"
"03:49:58","70.9","68.1","91","30.10","165","0.8","2.3","0.00","0.00"
"03:54:57","70.8","68","91","30.10","165","0.3","3.5","0.00","0.00"
"03:59:58","70.6","67.8","91","30.10","166","0.9","2.3","0.00","0.00"
"04:04:56","70.5","67.7","91","30.09","167","0.6","2.3","0.00","0.00"
"04:09:57","70.4","67.6","91.1","30.09","167","0.3","2.3","0.00","0.00"
"04:14:56","70.3","67.5","91.2","30.09","167","0.2","1.2","0.00","0.00"
"04:19:58","70.1","67.7","91.9","30.09","167","0","0","0.00","0.00"
"04:24:56","69.9","67.5","92","30.09","167","0","0","0.00","0.00"
"04:29:58","69.7","67.3","92","30.09","167","0","0","0.00","0.00"
"04:34:59","69.6","67.3","92.6","30.09","167","0","0","0.00","0.00"
"04:39:58","69.5","67.4","93","30.09","167","0.1","2.3","0.00","0.00"
"04:44:56","69.4","67.4","93.3","30.09","167","0.1","2.3","0.00","0.00"
"04:49:58","69.4","67.6","94","30.09","167","0.2","2.3","0.00","0.00"
"04:54:59","69.5","67.7","94","30.09","167","0.4","2.3","0.00","0.00"
"04:59:57","69.5","67.7","94","30.09","167","0.5","2.3","0.00","0.00"
"05:04:58","69.5","67.7","94","30.09","167","0.4","2.3","0.00","0.00"
"05:09:56","69.6","67.8","94","30.09","167","0","0","0.00","0.00"
"05:14:59","69.5","67.7","94","30.09","167","0","0","0.00","0.00"
"05:19:57","69.5","67.7","94","30.09","167","0","1.2","0.00","0.00"
"05:24:59","69.5","67.7","94","30.09","167","0.5","2.3","0.00","0.00"
"05:29:56","69.5","67.9","94.7","30.09","167","1","3.5","0.00","0.00"
"05:34:58","69.5","67.8","94.4","30.09","167","0.5","2.3","0.00","0.00"
"05:39:57","69.5","68","95","30.09","167","0","1.2","0.00","0.00"
"05:44:59","69.5","68","95","30.09","167","0.6","3","0.00","0.00"
"05:49:57","69.6","68.1","95","30.09","167","0.6","3.5","0.00","0.00"
"05:54:59","69.7","68.2","95","30.09","163","1.4","4","0.00","0.00"
"05:59:57","69.8","68.3","95","30.09","120","0.8","3.5","0.00","0.00"
"06:04:58","69.8","68.2","94.7","30.09","118","1.3","4","0.00","0.00"
"06:09:56","69.8","68.3","95","30.09","119","1.1","3.5","0.00","0.00"
"06:14:56","69.8","68.3","95","30.09","155","1.3","4","0.00","0.00"
"06:19:57","69.8","68.3","95","30.09","161","1.2","3.5","0.00","0.00"
"06:24:59","69.9","68.4","95","30.09","161","1","4","0.00","0.00"
"06:29:56","69.9","68.4","95","30.09","208","0.5","3.5","0.00","0.00"
"06:34:57","70","68.5","95","30.09","222","0.8","3.5","0.00","0.00"
"06:39:56","70","68.5","95","30.09","210","0.3","2.3","0.00","0.00"
"06:44:58","70.1","68.6","95","30.09","202","0.5","2.3","0.00","0.00"
"06:49:55","70.2","68.7","95","30.09","200","1.6","4","0.00","0.00"
"06:54:57","70.3","68.8","95","30.09","199","0.7","3.5","0.00","0.00"
"06:59:58","70.4","68.9","95","30.09","196","1.2","3.5","0.00","0.00"
"07:04:59","70.6","69.1","94.9","30.09","181","1","4","0.00","0.00"
"07:09:57","70.8","69","94","30.09","173","1.3","4","0.00","0.00"
"07:14:56","71","69.2","94","30.09","165","0.5","2.3","0.00","0.00"
"07:19:57","71.2","69.4","94","30.09","154","0.9","3.5","0.00","0.00"
"07:24:59","71.6","69.7","94","30.09","153","0.9","3.5","0.00","0.00"
"07:29:56","71.9","69.8","93","30.09","148","1.5","4","0.00","0.00"
"07:34:58","72.1","70","92.8","30.09","153","2.1","4","0.00","0.00"
"07:39:56","72.5","70","92","30.09","160","1.7","4","0.00","0.00"
"07:44:58","72.9","70.3","91.7","30.09","131","1.3","4","0.00","0.00"
"07:49:59","73.3","70.5","91","30.09","139","1.4","3.5","0.00","0.00"
"07:54:57","73.7","70.7","90.4","30.09","155","1.9","4","0.00","0.00"
"07:59:59","73.9","70.7","89.7","30.09","161","2.4","4","0.00","0.00"
"08:04:56","74.2","70.7","89.1","30.09","166","2.2","5","0.00","0.00"
"08:09:58","74.5","70.9","88.7","30.09","158","1.8","4.6","0.00","0.00"
"08:14:58","74.9","71.1","88.2","30.09","183","2.3","5","0.00","0.00"
"08:19:59","75.3","71.4","87.6","30.09","162","2.5","6","0.00","0.00"
"08:24:57","75.9","71.6","86.6","30.09","145","2.2","6","0.00","0.00"
"08:29:58","76.3","71.8","86","30.09","180","3.1","6","0.00","0.00"
"08:34:56","76.6","71.8","85.3","30.09","191","2.7","6","0.00","0.00"
"08:39:58","76.9","72.2","85.5","30.09","180","1.8","4","0.00","0.00"
"08:44:56","77.3","72.3","84.6","30.10","174","2.3","5","0.00","0.00"
"08:49:57","77.5","72.3","84","30.10","176","2.2","4","0.00","0.00"
"08:54:58","77.9","72.8","84.3","30.10","160","1.9","4","0.00","0.00"
"08:59:56","78.3","72.7","82.9","30.10","162","2.3","5","0.00","0.00"
"09:04:57","78.7","72.7","82","30.10","192","2.3","5","0.00","0.00"
"09:09:56","78.9","72.9","81.8","30.10","174","2","4.6","0.00","0.00"
"09:14:56","79.2","73","81.3","30.10","178","2.3","6","0.00","0.00"
"09:19:58","79.5","73.1","80.8","30.10","192","2","6","0.00","0.00"
"09:24:57","79.9","73.4","80.8","30.10","190","2.4","7","0.00","0.00"
"09:29:55","80.2","73.3","79.5","30.10","151","2.4","6.9","0.00","0.00"
"09:34:58","80.5","73.5","79.2","30.09","152","2.5","5","0.00","0.00"
"09:39:58","81","74.1","79.4","30.09","158","2.6","5","0.00","0.00"
"09:44:57","81.5","74","77.8","30.09","169","2.8","6","0.00","0.00"
"09:49:56","81.9","74.1","77.4","30.09","166","3","7","0.00","0.00"
"09:54:58","82.1","73.7","75.9","30.09","179","3.7","9.2","0.00","0.00"
"09:59:57","82.2","74","76.3","30.09","188","3","7","0.00","0.00"
"10:04:59","82.4","74.3","76.5","30.09","207","3.5","7","0.00","0.00"
"10:09:59","82.9","74.6","76.2","30.09","179","2.9","7","0.00","0.00"
"10:14:58","83.2","74.5","75.1","30.09","147","2.1","5","0.00","0.00"
"10:19:57","83.5","74.5","74.3","30.09","188","3.9","9.2","0.00","0.00"
"10:24:56","83.7","74.4","73.8","30.09","163","2.7","6","0.00","0.00"
"10:29:58","83.9","74.4","73.2","30.09","152","2.3","5","0.00","0.00"
"10:34:57","84.2","74.5","72.9","30.08","163","3.3","7","0.00","0.00"
"10:39:56","84.3","74.1","71.5","30.08","206","3.5","6.9","0.00","0.00"
"10:44:59","84.6","74.7","72.4","30.08","197","3.3","6","0.00","0.00"
"10:49:57","84.9","75.1","72.4","30.08","171","3.1","9.2","0.00","0.00"
"10:54:59","85.1","74.4","70.5","30.08","157","3.7","8.1","0.00","0.00"
"10:59:58","85.3","75","71.3","30.08","180","3.5","9.2","0.00","0.00"
"11:04:56","85.6","74.6","69.6","30.08","169","3.2","6","0.00","0.00"
"11:09:59","85.9","74.7","69.5","30.08","184","3.4","7","0.00","0.00"
"11:14:59","86.3","75.6","70.5","30.08","175","2.9","7","0.00","0.00"
"11:19:58","86.6","75.1","68.6","30.08","179","3.5","6.9","0.00","0.00"
"11:24:56","86.9","75.4","68.9","30.08","188","4.2","11.5","0.00","0.00"
"11:29:59","87.1","75.2","67.9","30.08","170","2.7","6","0.00","0.00"
"11:34:58","87.6","75.8","68.2","30.07","171","1.6","5","0.00","0.00"
"11:39:58","88","75.4","66.3","30.07","183","3.5","7","0.00","0.00"
"11:44:56","88.3","75.6","66.3","30.07","170","3.2","7","0.00","0.00"
"11:49:59","88.4","75.7","66.3","30.07","168","2.8","6.9","0.00","0.00"
"11:54:57","88.9","76.5","67.1","30.07","190","2.2","4","0.00","0.00"
"11:59:56","89.5","76.1","65","30.07","182","3.1","10","0.00","0.00"
"12:04:54","89.6","75","62.3","30.07","182","4.4","10.4","0.00","0.00"
"12:09:57","89.3","74.6","62.1","30.07","157","3.7","11.5","0.00","0.00"
"12:14:57","88.9","74.6","62.9","30.07","184","3.1","7","0.00","0.00"
"12:19:56","88.6","74.9","64","30.07","176","2.8","7","0.00","0.00"
"12:24:58","88.5","74.8","64.1","30.07","183","3.9","9.2","0.00","0.00"
"12:29:57","88.5","75.1","64.8","30.07","169","2.9","9","0.00","0.00"
"12:34:56","88.9","75.9","65.5","30.05","171","3","7","0.00","0.00"
"12:39:59","89.5","75.6","63.8","30.05","172","3.8","11.5","0.00","0.00"
"12:44:59","89.8","75.8","63.7","30.05","188","3.1","8.1","0.00","0.00"
"12:49:57","90.2","76","63.2","30.05","178","3.9","12","0.00","0.00"
"12:54:56","90.6","75.8","62","30.05","209","5","12","0.00","0.00"
"12:59:58","90.6","75.8","61.9","30.05","205","4.5","10.4","0.00","0.00"
"13:04:56","90.1","75","61.2","30.05","199","4.1","14","0.00","0.00"
"13:09:59","89.4","74.6","61.7","30.05","170","2.6","7","0.00","0.00"
"13:14:56","89.1","74.6","62.4","30.05","185","2.9","6","0.00","0.00"
"13:19:58","88.7","74.8","63.5","30.05","205","3","5.8","0.00","0.00"
"13:24:57","88.2","74.1","63.3","30.05","208","4.3","10.4","0.00","0.00"
"13:29:56","87.7","74.6","65.2","30.05","237","2.3","8.1","0.00","0.00"
"13:34:58","87.4","74.6","65.9","30.05","187","2.1","5","0.00","0.00"
"13:39:58","87.2","74.8","66.7","30.05","206","1.5","4","0.00","0.00"
"13:44:57","86.9","74.8","67.4","30.05","209","2.1","4","0.00","0.00"
"13:49:59","86.7","74.5","67.3","30.04","194","2.7","5","0.00","0.00"
"13:54:58","86.4","74.7","68.2","30.04","184","2.1","5","0.00","0.00"
"13:59:56","86.3","74.6","68.3","30.04","202","1.9","5","0.00","0.00"
"14:04:58","86.1","74.9","69.3","30.04","214","1.3","3.5","0.00","0.00"
"14:09:58","85.9","75","70","30.04","199","2.5","7","0.00","0.00"
"14:14:58","85.7","74.8","70","30.04","189","2.1","4","0.00","0.00"
"14:19:57","85.6","74.7","70.2","30.03","189","1","3.5","0.00","0.00"
"14:24:56","85.5","74.6","70.2","30.03","190","1.3","4","0.00","0.00"
"14:29:58","85.4","74.7","70.5","30.03","218","1.7","4","0.00","0.00"
"14:34:57","85.4","74.8","70.7","30.02","190","2","4","0.00","0.00"
"14:39:57","85.5","75","71","30.02","190","1.4","3.5","0.00","0.00"
"14:44:59","85.5","75.2","71.3","30.02","182","1.8","4","0.00","0.00"
"14:49:58","85.7","75.4","71.7","30.01","182","2.1","7","0.00","0.00"
"14:54:57","85.9","75.6","71.7","30.01","179","1.9","6.9","0.00","0.00"
"14:59:56","86.2","76.1","71.8","30.01","173","1.8","3.5","0.00","0.00"
"15:04:58","86.7","76.2","70.9","30.01","183","3.5","9.2","0.00","0.00"
"15:09:57","87.4","76.6","70.4","30.01","181","2.1","5","0.00","0.00"
"15:14:57","88.3","76.7","68.7","30.01","194","3","9.2","0.00","0.00"
"15:19:59","88.7","76.6","67.6","30.00","207","3.8","9","0.00","0.00"
"15:24:58","89.2","76.8","67","30.00","222","3.3","9.2","0.00","0.00"
"15:29:56","90","77.6","67","30.00","199","2.9","9.2","0.00","0.00"
"15:34:56","90.8","78.1","66.5","30.00","222","2.1","5","0.00","0.00"
"15:39:59","91.4","78.1","65.3","30.00","181","2.9","7","0.00","0.00"
"15:44:59","91.3","77.6","64.4","30.01","224","2.6","5","0.00","0.00"
"15:49:58","90.8","77.1","64.2","30.01","216","3.5","9.2","0.00","0.00"
"15:54:57","90.3","76.5","64.1","30.01","188","3.8","9.2","0.00","0.00"
"15:59:59","89.8","75.8","63.7","30.01","191","3.3","8.1","0.00","0.00"
"16:04:57","89.2","75.8","64.7","30.01","179","2.7","4.6","0.00","0.00"
"16:09:56","88.9","76","65.8","30.01","194","1.8","5","0.00","0.00"
"16:14:56","88.5","76.1","66.9","30.01","190","2","4.6","0.00","0.00"
"16:19:59","88.2","76.3","67.8","30.00","217","1.8","4","0.00","0.00"
"16:24:57","87.9","76.2","68.4","30.00","203","2.1","5","0.00","0.00"
"16:29:56","87.6","76.2","69.1","30.00","185","2.4","6","0.00","0.00"
"16:34:58","87.3","76.1","69.7","30.00","183","1.8","3.5","0.00","0.00"
"16:39:58","87","76.1","70.2","30.00","183","1.5","4","0.00","0.00"
"16:44:57","86.8","75.9","70.3","30.00","184","1.2","2.3","0.00","0.00"
"16:49:56","86.5","75.9","70.7","29.99","181","0.9","3.5","0.00","0.00"
"16:54:58","86.4","75.7","70.5","29.99","179","1.4","3.5","0.00","0.00"
"16:59:59","86.2","75.6","70.8","30.00","180","0.8","3.5","0.00","0.00"
"17:04:57","86","76.1","72.4","30.00","180","0.2","2","0.00","0.00"
"17:09:56","85.7","76.8","74.7","30.00","180","0.5","2.3","0.00","0.00"
"17:14:56","85.1","76.2","74.8","30.00","180","0","0","0.00","0.00"
"17:19:59","84.6","75.9","75.3","30.00","349","0.5","10","0.00","0.00"
"17:24:57","84.2","74.6","72.9","30.00","329","2.5","10.4","0.00","0.00"
"17:29:56","83.8","74","72.7","30.00","290","1","4","0.00","0.00"
"17:34:58","82.9","74.4","75.7","30.00","218","4.1","7","0.04","0.03"
"17:39:58","80.8","73.4","78.3","30.00","246","5.2","12","0.06","0.06"
"17:44:59","77.9","70.4","77.9","30.03","251","5.9","14","0.08","0.08"
"17:49:57","75.3","69","80.7","30.03","305","6.3","17.3","0.20","0.17"
"17:54:58","73.6","68","82.6","30.03","337","4.3","15","0.27","0.27"
"17:59:59","73.1","67.7","83.2","30.03","352","1.6","9.2","0.28","0.28"
"18:04:56","73.1","69","87.3","30.01","220","0.9","3.5","0.28","0.28"
"18:09:58","72.9","69.9","90.5","30.01","216","1","3.5","0.28","0.28"
"18:14:56","73","70.8","92.7","30.01","200","1.2","3.5","0.28","0.28"
"18:19:58","73.1","71","93","30.00","200","0.3","2.3","0.28","0.28"
"18:24:59","73.2","71.3","93.8","30.00","200","0.7","3.5","0.28","0.28"
"18:29:57","73.3","71.5","94","30.00","200","0","1.2","0.28","0.28"
"18:34:58","73.5","71.7","94","29.99","200","0","0","0.28","0.28"
"18:39:57","73.6","72","94.6","29.99","200","0","0","0.28","0.24"
"18:44:59","74","72.5","95","30.00","200","0.1","2","0.28","0.22"
"18:49:56","74.4","73","95.4","30.00","200","0.9","2.3","0.28","0.20"
"18:54:57","74.7","73.3","95.2","30.00","200","0","1.2","0.28","0.08"
"18:59:59","75","73.7","95.5","30.01","200","0","0","0.28","0.01"
"19:04:56","75.1","73.6","95","30.01","200","0","0","0.28","0.00"
"19:09:58","75.2","73.7","95","30.01","200","0","0","0.28","0.00"
"19:14:56","75.2","73.7","95.1","30.01","200","0","0","0.28","0.00"
"19:19:58","75.3","73.8","95.1","30.01","199","0","0","0.28","0.00"
"19:24:59","75.2","73.7","95","30.01","199","0","1","0.28","0.00"
"19:29:56","75.2","73.7","95","30.01","199","0.6","2.3","0.28","0.00"
"19:34:58","75","73.5","95","30.01","199","0.7","2.3","0.28","0.00"
"19:39:56","74.9","73.4","95","30.01","199","0","1.2","0.28","0.00"
"19:44:58","74.9","73.4","95","30.01","199","0.3","2.3","0.28","0.00"
"19:49:59","74.8","73.3","95","30.00","199","0","1.2","0.28","0.00"
"19:54:57","74.8","73.4","95.2","30.00","199","0","1","0.28","0.00"
"19:59:58","74.9","73.7","96","30.00","199","0","1.2","0.28","0.00"
"20:04:59","74.9","73.7","96","30.00","198","0","0","0.28","0.00"
"20:09:57","74.9","73.7","96","30.00","198","0","0","0.28","0.00"
"20:14:56","75","73.8","96","30.00","198","0","0","0.28","0.00"
"20:19:58","75","73.8","96","29.98","198","0","0","0.28","0.00"
"20:24:59","75","73.8","96","29.98","198","0","0","0.28","0.00"
"20:29:57","74.9","73.7","96","29.98","198","0","0","0.28","0.00"
"20:34:59","74.9","73.7","96","29.98","198","0","0","0.28","0.00"
"20:39:58","74.9","73.7","96","29.98","198","0","0","0.28","0.00"
"20:44:56","74.9","73.7","96","29.98","198","0","1.2","0.28","0.00"
"20:49:57","74.8","73.6","96","29.98","198","0","1","0.28","0.00"
"20:54:59","74.8","73.6","96","29.98","198","0","1.2","0.28","0.00"
"20:59:57","74.8","73.6","96","29.98","198","0","0","0.28","0.00"
"21:04:58","74.6","73.4","96","29.97","198","0","0","0.28","0.00"
"21:09:59","74.4","73.2","96","29.97","198","0.1","2","0.28","0.00"
"21:14:59","74.4","73.3","96.5","29.98","198","0.7","2.3","0.28","0.00"
"21:19:56","74.6","73.7","97","29.98","179","0.9","3.5","0.28","0.00"
"21:24:58","74.8","73.9","97","29.98","167","0.6","3.5","0.28","0.00"
"21:29:59","74.9","73.9","96.5","29.98","167","0","0","0.28","0.00"
"21:34:58","74.9","73.7","96.1","29.97","167","0","0","0.28","0.00"
"21:39:57","74.9","73.7","96","29.97","167","0","0","0.28","0.00"
"21:44:59","75","74","96.8","29.97","167","0","0","0.28","0.00"
"21:49:56","75","73.9","96.2","29.97","167","0","1","0.28","0.00"
"21:54:58","75.1","73.9","96.2","29.97","167","0.4","2.3","0.28","0.00"
"21:59:56","75","73.8","96","29.97","167","1.2","3.5","0.28","0.00"
"22:04:57","74.9","73.7","96","29.96","167","0.9","3.5","0.28","0.00"
"22:09:59","75","73.8","96","29.96","167","1.5","4","0.28","0.00"
"22:14:58","75.1","73.9","96","29.96","167","1.7","4","0.28","0.00"
"22:19:56","75.1","73.9","96","29.96","167","1.1","4","0.28","0.00"
"22:24:57","75","73.8","96","29.96","167","0.8","3.5","0.28","0.00"
"22:29:59","75","73.8","96","29.96","167","0.1","2.3","0.28","0.00"
"22:34:57","75.1","73.9","96","29.96","167","0","1.2","0.28","0.00"
"22:39:56","75","73.5","95.1","29.96","167","0.7","2.3","0.28","0.00"
"22:44:58","75","73.5","95","29.96","167","0","0","0.28","0.00"
"22:49:56","75","73.5","95","29.96","167","0","0","0.28","0.00"
"22:54:58","74.9","73.4","95","29.96","167","0","0","0.28","0.00"
"22:59:59","74.9","73.4","95","29.97","167","0","0","0.28","0.00"
"23:04:57","74.8","73.3","95","29.97","167","0","0","0.28","0.00"
"23:09:59","74.7","73.2","95","29.97","167","0","0","0.28","0.00"
"23:14:58","74.7","73.2","95","29.97","167","0","0","0.28","0.00"
"23:19:56","74.7","73.2","95","29.96","167","0","0","0.28","0.00"
"23:24:57","74.8","73.2","94.8","29.96","166","0","0","0.28","0.00"
"23:29:59","74.9","73.1","94","29.96","146","0.5","3.5","0.28","0.00"
"23:34:57","75","73.2","94","29.95","146","0.3","2.3","0.28","0.00"
"23:39:56","74.9","73.1","94","29.95","152","1.6","4","0.28","0.00"
"23:44:58","75","73","93.6","29.96","152","1.1","4","0.28","0.00"
"23:49:59","75","72.8","93","29.96","148","0.2","2.3","0.28","0.00"
"23:54:57","74.9","72.8","93.2","29.96","148","0.1","1.2","0.28","0.00"
"23:59:59","74.8","73","94","29.96","148","0.3","2.3","0.28","0.00"
